QPF
0.05 0.03 0.01 0.13 0.17 0.28 0.51 0.49 0.29 0.02 0.04 0.06 0.01 0.01 0.00 0.00 0.00 0.01 0.00 0.00 0.00 0.00 0.00 0.00 0.00 0.00 0.00 0.00 0.00 0.00 0.00 0.00
0.02 0.09 0.06 0.05 0.16 0.25 0.24 0.43 0.56 0.42 0.16 0.14 0.11 0.05 0.00 0.00 0.00 0.00 0.00 0.00 0.00 0.00 0.00 0.00 0.00 0.00 0.00 0.00 0.00 0.00 0.00 0.00
0.03 0.07 0.08 0.09 0.13 0.13 0.15 0.24 0.37 0.33 0.21 0.11 0.20 0.10 0.02 0.01 0.02 0.00 0.00 0.00 0.00 0.00 0.00 0.00 0.00 0.00 0.00 0.00 0.00 0.00 0.00 0.00
0.05 0.03 0.04 0.05 0.04 0.02 0.04 0.12 0.20 0.14 0.08 0.03 0.12 0.14 0.03 0.02 0.01 0.00 0.00 0.00 0.00 0.00 0.00 0.00 0.00 0.00 0.00 0.00 0.00 0.00 0.00 0.00
0.01 0.03 0.04 0.02 0.01 0.01 0.03 0.04 0.08 0.03 0.01 0.01 0.09 0.16 0.03 0.04 0.03 0.01 0.00 0.00 0.00 0.00 0.00 0.00 0.00 0.00 0.00 0.00 0.00 0.00 0.00 0.00
0.01 0.00 0.00 0.00 0.00 0.01 0.02 0.04 0.04 0.01 0.02 0.04 0.07 0.06 0.02 0.01 0.01 0.00 0.00 0.00 0.00 0.00 0.00 0.00 0.00 0.00 0.00 0.00 0.00 0.00 0.00 0.00
0.01 0.02 0.01 0.00 0.00 0.01 0.01 0.01 0.02 0.01 0.02 0.04 0.07 0.02 0.01 0.01 0.01 0.00 0.00 0.00 0.00 0.00 0.00 0.00 0.00 0.00 0.00 0.00 0.00 0.00 0.00 0.00
0.00 0.01 0.02 0.01 0.00 0.01 0.00 0.00 0.00 0.01 0.03 0.05 0.07 0.01 0.00 0.01 0.01 0.00 0.00 0.00 0.00 0.00 0.00 0.00 0.00 0.00 0.00 0.00 0.00 0.00 0.00 0.00
0.00 0.00 0.00 0.00 0.01 0.00 0.00 0.00 0.01 0.01 0.03 0.06 0.04 0.01 0.00 0.00 0.00 0.00 0.00 0.00 0.00 0.00 0.00 0.00 0.00 0.00 0.00 0.00 0.00 0.00 0.00 0.00
0.00 0.00 0.00 0.00 0.01 0.00 0.00 0.01 0.01 0.01 0.02 0.03 0.03 0.00 0.00 0.00 0.00 0.00 0.00 0.00 0.00 0.00 0.00 0.00 0.00 0.00 0.00 0.00 0.00 0.00 0.00 0.00
0.01 0.01 0.00 0.00 0.01 0.01 0.01 0.01 0.01 0.01 0.02 0.00 0.00 0.00 0.00 0.00 0.00 0.00 0.00 0.00 0.00 0.00 0.00 0.00 0.00 0.00 0.00 0.00 0.00 0.00 0.00 0.00
0.01 0.01 0.00 0.00 0.01 0.01 0.01 0.01 0.01 0.02 0.00 0.00 0.00 0.00 0.00 0.00 0.00 0.00 0.00 0.00 0.00 0.00 0.00 0.00 0.00 0.00 0.00 0.00 0.00 0.00 0.00 0.00
0.01 0.01 0.00 0.00 0.00 0.00 0.00 0.00 0.01 0.02 0.00 0.00 0.00 0.00 0.00 0.00 0.00 0.00 0.00 0.00 0.00 0.00 0.00 0.00 0.00 0.00 0.00 0.00 0.00 0.00 0.00 0.00
0.01 0.00 0.00 0.00 0.00 0.00 0.00 0.00 0.01 0.01 0.00 0.00 0.00 0.00 0.00 0.00 0.00 0.00 0.00 0.00 0.00 0.00 0.00 0.00 0.00 0.00 0.00 0.00 0.01 0.01 0.00 0.00
0.00 0.00 0.00 0.00 0.00 0.00 0.00 0.00 0.01 0.02 0.01 0.00 0.00 0.00 0.00 0.00 0.00 0.00 0.00 0.00 0.00 0.00 0.00 0.00 0.06 0.01 0.00 0.08 0.12 0.09 0.08 0.02
0.00 0.00 0.00 0.00 0.00 0.00 0.00 0.00 0.00 0.00 0.00 0.00 0.00 0.00 0.00 0.00 0.00 0.00 0.00 0.00 0.00 0.00 0.00 0.00 0.11 0.11 0.01 0.00 0.01 0.08 0.13 0.11
0.00 0.00 0.00 0.00 0.00 0.00 0.00 0.00 0.00 0.00 0.00 0.00 0.00 0.00 0.00 0.00 0.00 0.00 0.00 0.00 0.02 0.05 0.04 0.03 0.07 0.10 0.02 0.05 0.00 0.01 0.02 0.03
0.00 0.00 0.00 0.00 0.00 0.00 0.00 0.00 0.00 0.00 0.00 0.00 0.00 0.00 0.00 0.00 0.00 0.00 0.00 0.01 0.02 0.04 0.04 0.06 0.07 0.09 0.06 0.04 0.04 0.04 0.02 0.02
0.00 0.00 0.00 0.00 0.00 0.00 0.00 0.00 0.00 0.00 0.00 0.00 0.00 0.00 0.00 0.00 0.00 0.00 0.00 0.00 0.01 0.03 0.03 0.03 0.05 0.04 0.05 0.03 0.03 0.01 0.02 0.04
0.00 0.00 0.00 0.00 0.00 0.00 0.00 0.00 0.00 0.00 0.00 0.00 0.00 0.00 0.00 0.00 0.00 0.00 0.00 0.00 0.00 0.00 0.02 0.03 0.03 0.04 0.06 0.04 0.02 0.02 0.02 0.02
MSLP
1008.87 1009.38 1010.11 1010.46 1010.71 1010.88 1011.91 1010.80 1011.63 1012.30 1012.67 1012.91 1013.64 1014.67 1015.20 1015.16 1016.45 1016.98 1017.25 1017.98 1018.70 1019.30 1019.70 1020.42 1020.48 1021.05 1021.17 1021.25 1020.71 1020.32 1019.92 1020.73
1009.48 1009.29 1009.74 1010.08 1010.49 1010.91 1011.73 1011.64 1011.52 1012.19 1012.55 1013.01 1014.12 1014.68 1015.70 1015.34 1016.57 1017.35 1017.58 1018.37 1019.14 1019.78 1020.06 1020.87 1020.92 1021.47 1021.68 1021.57 1021.02 1020.64 1020.35 1021.11
1009.62 1009.41 1009.26 1009.68 1010.31 1011.04 1011.75 1011.98 1012.52 1012.81 1013.20 1013.39 1014.47 1015.20 1015.80 1015.84 1016.69 1017.56 1018.02 1018.89 1019.71 1020.05 1020.53 1021.26 1021.56 1021.74 1022.04 1021.69 1021.30 1020.37 1020.43 1021.27
1009.17 1009.46 1009.76 1010.07 1010.78 1010.81 1011.52 1012.00 1012.69 1012.97 1013.63 1014.12 1014.99 1015.94 1015.74 1016.12 1017.29 1018.10 1018.72 1019.27 1019.96 1020.36 1021.10 1021.56 1021.54 1021.71 1022.02 1022.14 1021.27 1020.74 1020.82 1022.03
1008.75 1009.12 1009.52 1010.25 1010.75 1011.13 1011.78 1012.52 1012.91 1013.56 1013.79 1014.65 1015.33 1016.51 1016.05 1017.02 1017.68 1018.43 1018.93 1019.43 1019.98 1020.55 1021.47 1021.09 1020.78 1021.19 1021.52 1021.02 1021.22 1021.02 1021.31 1022.58
1009.03 1009.47 1009.91 1010.37 1010.92 1011.18 1011.55 1012.28 1012.46 1013.51 1014.38 1015.14 1015.77 1016.37 1016.32 1016.96 1017.62 1017.81 1018.45 1018.85 1019.79 1020.42 1020.55 1020.10 1020.53 1021.00 1021.05 1021.43 1021.20 1021.08 1021.57 1022.89
1009.33 1009.80 1010.13 1010.60 1011.09 1011.61 1011.59 1012.29 1012.75 1013.27 1014.54 1015.52 1016.24 1016.29 1016.33 1017.00 1017.11 1017.44 1018.07 1018.55 1019.30 1019.87 1019.59 1020.17 1020.54 1020.98 1021.40 1021.56 1021.35 1021.36 1021.89 1022.94
1009.84 1009.86 1010.45 1010.84 1011.32 1011.89 1012.50 1012.74 1013.40 1014.19 1014.87 1015.57 1016.46 1016.00 1016.48 1016.62 1017.21 1017.46 1017.74 1018.19 1018.75 1019.20 1019.65 1020.14 1020.59 1020.91 1021.41 1021.52 1021.61 1021.86 1022.00 1022.82
1009.89 1010.19 1010.45 1011.10 1011.40 1012.20 1012.82 1013.48 1013.94 1014.54 1015.28 1015.99 1016.41 1016.22 1016.36 1016.71 1016.92 1016.87 1017.17 1017.57 1018.35 1018.85 1019.71 1019.93 1020.31 1020.74 1021.26 1021.50 1021.73 1022.02 1022.11 1022.50
1009.70 1010.22 1010.72 1011.16 1011.72 1012.18 1012.74 1013.65 1014.36 1014.83 1015.48 1016.11 1016.28 1016.31 1016.64 1016.82 1016.75 1016.88 1017.03 1017.57 1018.22 1018.84 1019.38 1019.87 1020.21 1020.61 1021.10 1021.52 1021.64 1021.96 1022.44 1022.64
1009.59 1010.37 1010.87 1011.27 1011.76 1012.24 1012.76 1013.52 1014.24 1014.92 1015.42 1015.94 1016.26 1016.33 1016.59 1016.74 1016.93 1017.27 1017.47 1017.89 1018.39 1018.94 1019.30 1019.86 1020.33 1020.64 1021.11 1021.46 1021.50 1021.80 1022.39 1022.55
1009.51 1010.21 1010.82 1011.43 1011.76 1012.31 1012.89 1013.40 1014.19 1014.72 1015.37 1015.69 1015.75 1015.89 1016.57 1016.59 1016.90 1017.35 1017.82 1018.35 1018.89 1019.09 1019.37 1019.90 1020.31 1020.66 1020.84 1021.35 1021.70 1021.83 1022.22 1022.33
1008.93 1009.97 1010.66 1011.21 1011.68 1012.25 1012.86 1013.32 1014.01 1014.80 1015.24 1015.68 1015.89 1015.71 1016.02 1016.15 1016.42 1016.97 1017.77 1018.21 1018.54 1018.99 1019.52 1019.90 1020.27 1020.82 1021.00 1021.48 1021.77 1022.02 1022.03 1022.09
1008.86 1009.59 1010.14 1010.85 1011.42 1012.02 1012.44 1013.12 1013.76 1014.35 1014.97 1015.47 1015.88 1015.90 1015.99 1016.25 1016.38 1017.29 1017.55 1018.13 1018.51 1019.07 1019.52 1019.77 1020.25 1020.80 1020.78 1021.00 1021.30 1021.92 1021.78 1021.66
1008.10 1009.22 1010.02 1010.42 1010.86 1011.43 1012.27 1013.07 1013.72 1014.30 1014.93 1015.39 1015.60 1015.84 1015.93 1015.94 1016.65 1016.94 1017.56 1018.00 1018.30 1018.92 1019.26 1019.73 1020.13 1020.82 1020.79 1020.53 1020.76 1020.67 1020.71 1020.90
1007.78 1008.67 1009.53 1010.15 1010.60 1011.15 1011.67 1012.33 1012.90 1013.47 1014.13 1014.98 1015.57 1015.77 1015.82 1015.79 1016.38 1017.32 1017.57 1017.69 1018.21 1018.63 1019.24 1019.35 1019.77 1020.35 1020.92 1020.71 1020.61 1020.60 1020.50 1020.73
1006.73 1008.11 1008.76 1009.71 1010.15 1010.67 1011.28 1011.80 1012.39 1013.02 1013.83 1014.52 1015.27 1015.83 1015.84 1016.04 1016.42 1017.51 1017.82 1017.77 1018.06 1018.51 1019.13 1018.92 1019.38 1020.01 1020.41 1020.21 1020.25 1020.19 1020.34 1020.50
1006.32 1007.45 1007.97 1008.76 1009.51 1009.84 1010.35 1010.64 1011.41 1012.23 1013.19 1013.73 1014.67 1015.46 1015.91 1016.25 1016.58 1017.02 1017.34 1017.39 1018.06 1018.30 1018.50 1018.93 1019.10 1019.45 1019.80 1019.62 1019.70 1019.74 1019.66 1019.90
1005.61 1006.36 1006.74 1007.88 1008.76 1009.21 1009.63 1009.86 1010.34 1011.24 1011.92 1012.83 1013.62 1014.43 1015.14 1015.62 1015.91 1016.25 1016.65 1016.92 1017.65 1017.85 1018.04 1018.19 1018.54 1018.95 1019.28 1019.00 1018.84 1018.83 1019.09 1019.33
1004.73 1005.38 1005.83 1006.53 1007.79 1008.33 1009.05 1009.50 1009.83 1010.02 1010.61 1011.13 1012.07 1012.99 1013.68 1014.55 1015.11 1015.51 1015.95 1016.32 1017.02 1017.18 1017.47 1017.75 1017.98 1018.27 1018.52 1018.29 1018.05 1018.19 1018.53 1018.84
Thickness
5669 5666 5662 5659 5658 5657 5653 5662 5659 5658 5660 5663 5662 5654 5654 5658 5651 5650 5650 5648 5647 5645 5645 5640 5642 5637 5638 5638 5644 5648 5650 5645
5664 5661 5657 5654 5655 5654 5642 5651 5658 5654 5655 5658 5652 5652 5646 5652 5644 5641 5643 5642 5639 5637 5639 5633 5634 5631 5631 5632 5638 5641 5643 5638
5660 5661 5660 5658 5655 5650 5645 5646 5646 5645 5647 5651 5646 5643 5639 5640 5635 5633 5636 5633 5632 5632 5630 5626 5626 5626 5625 5628 5632 5638 5639 5633
5663 5658 5655 5653 5648 5646 5647 5643 5639 5643 5640 5640 5636 5630 5633 5633 5628 5627 5627 5627 5626 5626 5622 5620 5622 5621 5619 5621 5627 5632 5632 5623
5664 5660 5654 5646 5642 5638 5633 5631 5633 5633 5635 5632 5628 5623 5627 5622 5622 5620 5621 5622 5620 5621 5616 5619 5623 5621 5619 5624 5623 5626 5624 5615
5659 5654 5650 5645 5639 5636 5634 5629 5632 5629 5627 5622 5622 5621 5622 5620 5619 5621 5622 5622 5619 5617 5618 5622 5621 5618 5619 5618 5621 5621 5618 5608
5654 5649 5644 5638 5632 5628 5627 5621 5624 5626 5620 5616 5613 5618 5620 5616 5619 5620 5620 5621 5618 5617 5621 5618 5617 5615 5613 5612 5614 5614 5610 5603
5646 5645 5638 5636 5632 5625 5618 5617 5618 5616 5612 5610 5604 5614 5614 5616 5615 5615 5616 5617 5617 5617 5616 5614 5612 5612 5609 5608 5607 5606 5604 5599
5644 5641 5638 5633 5629 5621 5614 5611 5611 5608 5605 5601 5602 5607 5610 5610 5612 5614 5617 5617 5615 5615 5611 5612 5610 5608 5606 5604 5602 5600 5600 5598
5647 5640 5635 5631 5627 5622 5616 5610 5605 5603 5600 5597 5598 5602 5604 5605 5609 5610 5612 5611 5611 5610 5609 5608 5608 5606 5602 5599 5599 5597 5594 5592
5647 5638 5631 5627 5623 5619 5616 5611 5605 5601 5599 5597 5598 5600 5600 5599 5600 5602 5604 5604 5604 5603 5604 5603 5600 5601 5596 5595 5595 5594 5589 5588
5646 5639 5632 5624 5620 5618 5615 5611 5606 5602 5599 5598 5599 5599 5595 5596 5596 5596 5596 5597 5596 5598 5600 5598 5596 5596 5594 5591 5589 5589 5586 5585
5650 5639 5632 5626 5620 5616 5612 5610 5606 5602 5600 5598 5597 5598 5597 5597 5596 5594 5595 5596 5596 5596 5594 5593 5592 5589 5588 5585 5583 5582 5582 5582
5647 5640 5635 5626 5621 5617 5615 5611 5607 5603 5600 5597 5594 5596 5596 5597 5599 5595 5595 5594 5595 5593 5591 5590 5588 5586 5583 5582 5577 5575 5578 5581
5653 5642 5635 5630 5626 5621 5615 5609 5605 5602 5598 5597 5596 5594 5596 5596 5593 5594 5594 5593 5592 5590 5589 5586 5582 5579 5580 5581 5574 5577 5580 5582
5654 5646 5637 5632 5629 5623 5618 5613 5608 5605 5601 5595 5592 5591 5594 5595 5593 5588 5589 5591 5589 5588 5584 5586 5583 5575 5573 5577 5579 5581 5576 5573
5660 5647 5642 5634 5631 5627 5620 5615 5609 5604 5597 5594 5590 5588 5589 5589 5588 5583 5583 5586 5585 5584 5580 5584 5581 5574 5572 5575 5576 5579 5579 5575
5659 5649 5645 5640 5634 5632 5627 5624 5617 5608 5599 5596 5591 5587 5585 5584 5583 5583 5581 5583 5579 5579 5580 5577 5577 5575 5573 5575 5575 5575 5577 5575
5661 5657 5654 5645 5638 5634 5630 5629 5624 5615 5610 5602 5597 5589 5584 5584 5583 5582 5582 5581 5576 5576 5577 5578 5576 5572 5572 5577 5580 5581 5581 5579
5664 5661 5659 5655 5643 5640 5634 5630 5627 5626 5622 5618 5610 5601 5596 5591 5584 5581 5579 5580 5575 5574 5575 5575 5574 5574 5574 5579 5582 5582 5581 5578